User: anonymous   Login
Location: NJAA Observatory
(40.6819°N, 74.8979°W)
Time: 02:57:55
(UTC-05:00)
Language:

Cosmos 2082 - Orbit

View from above orbital plane
View from above orbital plane
View from above satellite
View from above satellite

Ground track
Ground track

The orbit data is extracted from the following two-line orbital elements,

1 20624U 90046A   14352.40660553  .00000032  00000-0  41588-4 0   926
2 20624 071.0429 322.8409 0016679 330.0275 193.4440 14.14124429268290
Epoch (UTC): 18 December 2014 09:45:30
Eccentricity: 0.0016679
inclination: 71.0429°
perigee height: 833 km
apogee height: 857 km
right ascension of ascending node: 322.8409°
argument of perigee: 330.0275°
revolutions per day: 14.14124429
mean anomaly at epoch: 193.4440°
orbit number at epoch: 26829

The dashed part of the orbit path shows where the satellite is in the earth's shadow,  

DLR